contact:dominique.lefevre@mio.osupytheas.fr, maurice.libes@osupytheas.fr, didier.mallarino@osupytheas.fr
Project:EMSO http://www.emso-fr.org/EMSO-France
Depth: 2436.0 m
Title:EMSO Ligure Ouest : Data MII capteur AQUADOPP
Date,Latitude,Longitude,X_East,Y_North,Z_Up,Amplitude_X,Amplitude_Y,Amplitude_Z,Batterie,SoundSpeed,Heading,Pitch,Roll,Pressure,TIS,Speed,Direction
, degrees North, degrees East, m.s-1, m.s-1,m.s-1, 1, 1, 1, Volt, m.s-1, degree, degree, degree, dbar, degree_C, m.s-1, degree
2021-10-29T00:04:03,42.805,6.029,-0.06,-0.002,-0.037,101.0,100.0,100.0,13.3,1505.2,331.5,-0.8,1.8,2470.723,13.28,0.06,268.1
2021-10-29T00:07:03,42.805,6.029,-0.056,0.013,-0.025,101.0,100.0,101.0,13.3,1505.2,326.4,-0.8,1.8,2470.692,13.28,0.057,283.1
2021-10-29T00:10:03,42.805,6.029,-0.039,0.011,0.024,100.0,101.0,101.0,13.3,1505.2,325.3,-0.8,1.8,2470.711,13.28,0.04,285.7
2021-10-29T00:13:03,42.805,6.029,-0.041,0.009,-0.024,100.0,101.0,100.0,13.4,1505.2,327.8,-0.7,1.8,2470.653,13.28,0.041,282.4
2021-10-29T00:16:03,42.805,6.029,-0.032,0.023,-0.022,101.0,99.0,100.0,13.4,1505.2,329.7,-0.7,1.8,2470.657,13.28,0.039,305.7
2021-10-29T00:19:03,42.805,6.029,-0.053,0.019,-0.006,100.0,101.0,100.0,13.3,1505.2,325.4,-0.7,1.8,2470.7,13.28,0.056,289.7
2021-10-29T00:22:03,42.805,6.029,-0.066,0.031,-0.009,101.0,101.0,101.0,13.4,1505.2,327.2,-0.8,1.8,2470.636,13.28,0.072,295.2
2021-10-29T00:25:03,42.805,6.029,-0.041,0.006,-0.012,100.0,101.0,101.0,13.4,1505.2,331.2,-0.7,1.8,2470.645,13.28,0.041,278.3
2021-10-29T00:28:03,42.805,6.029,-0.034,0.022,-0.024,100.0,101.0,101.0,13.3,1505.2,326.7,-0.7,1.8,2470.669,13.28,0.04,302.9
2021-10-29T00:31:03,42.805,6.029,-0.035,-0.01,-0.036,99.0,102.0,101.0,13.4,1505.2,325.9,-0.7,1.8,2470.645,13.28,0.036,254.1
2021-10-29T00:34:03,42.805,6.029,-0.042,0.002,-0.03,101.0,102.0,101.0,13.3,1505.2,330.1,-0.7,1.8,2470.686,13.28,0.042,272.7
2021-10-29T00:37:03,42.805,6.029,-0.041,0.014,-0.006,101.0,100.0,101.0,13.4,1505.2,328.6,-0.8,1.8,2470.639,13.28,0.043,288.9
2021-10-29T00:40:03,42.805,6.029,-0.051,0.014,-0.011,100.0,100.0,100.0,13.3,1505.2,326.8,-0.7,1.8,2470.651,13.28,0.052,285.3
2021-10-29T00:43:03,42.805,6.029,-0.031,0.019,0.003,101.0,103.0,99.0,13.4,1505.2,326.9,-0.8,1.8,2470.617,13.28,0.036,301.5
2021-10-29T00:46:03,42.805,6.029,-0.039,0.013,-0.03,101.0,101.0,101.0,13.4,1505.2,328.1,-0.8,1.8,2470.634,13.28,0.041,288.4
2021-10-29T00:49:03,42.805,6.029,-0.022,0.014,-0.005,101.0,101.0,101.0,13.4,1505.2,329.9,-0.8,1.8,2470.641,13.28,0.026,302.5
2021-10-29T00:52:03,42.805,6.029,-0.019,0.015,0.001,100.0,101.0,100.0,13.3,1505.2,331.9,-0.7,1.8,2470.645,13.28,0.024,308.3
2021-10-29T00:55:03,42.805,6.029,-0.062,0.009,-0.045,101.0,101.0,100.0,13.4,1505.2,329.4,-0.8,1.8,2470.623,13.28,0.062,278.3
2021-10-29T00:58:03,42.805,6.029,-0.02,0.0,-0.011,101.0,101.0,100.0,13.4,1505.2,327.0,-0.8,1.8,2470.672,13.28,0.02,270.0
2021-10-29T01:04:03,42.805,6.029,-0.05,0.04,0.007,102.0,104.0,102.0,13.3,1505.2,330.8,-0.7,1.8,2470.645,13.28,0.064,308.7
2021-10-29T01:07:03,42.805,6.029,-0.061,0.016,-0.02,102.0,103.0,101.0,13.4,1505.2,325.1,-0.8,1.8,2470.687,13.28,0.063,284.7
2021-10-29T01:10:03,42.805,6.029,-0.051,0.016,-0.003,101.0,102.0,101.0,13.4,1505.2,329.2,-0.8,1.8,2470.698,13.28,0.053,287.4
2021-10-29T01:13:03,42.805,6.029,-0.038,0.004,-0.032,100.0,101.0,101.0,13.3,1505.2,328.8,-0.7,1.8,2470.657,13.28,0.038,276.0
2021-10-29T01:16:03,42.805,6.029,-0.028,0.039,0.0,101.0,101.0,100.0,13.3,1505.2,328.6,-0.7,1.8,2470.699,13.28,0.048,324.3
2021-10-29T01:19:03,42.805,6.029,-0.04,0.0,-0.05,101.0,101.0,101.0,13.4,1505.2,327.2,-0.7,1.9,2470.659,13.28,0.04,270.0
2021-10-29T01:22:03,42.805,6.029,-0.043,0.014,-0.01,101.0,101.0,101.0,13.4,1505.2,327.2,-0.8,1.8,2470.666,13.28,0.045,288.0
2021-10-29T01:25:03,42.805,6.029,-0.032,0.005,-0.025,101.0,101.0,101.0,13.4,1505.2,328.4,-0.8,1.9,2470.658,13.28,0.032,278.9
2021-10-29T01:28:03,42.805,6.029,-0.018,0.019,0.009,101.0,100.0,100.0,13.4,1505.2,327.4,-0.8,1.9,2470.657,13.28,0.026,316.5
2021-10-29T01:31:03,42.805,6.029,-0.052,0.007,-0.018,101.0,101.0,100.0,13.4,1505.2,325.8,-0.8,1.8,2470.64,13.28,0.052,277.7
2021-10-29T01:34:03,42.805,6.029,-0.047,0.006,0.016,102.0,101.0,100.0,13.4,1505.2,327.0,-0.7,1.8,2470.62,13.28,0.047,277.3
2021-10-29T01:37:03,42.805,6.029,-0.037,0.009,0.0,101.0,100.0,102.0,13.3,1505.2,329.5,-0.7,1.8,2470.639,13.28,0.038,283.7
2021-10-29T01:40:03,42.805,6.029,-0.006,-0.003,-0.012,101.0,101.0,101.0,13.3,1505.2,325.8,-0.8,1.8,2470.697,13.28,0.006,243.4
2021-10-29T01:43:03,42.805,6.029,-0.053,0.017,-0.008,101.0,101.0,102.0,13.4,1505.2,330.7,-0.7,1.8,2470.67,13.28,0.055,287.8
2021-10-29T01:46:03,42.805,6.029,-0.046,0.022,-0.032,101.0,101.0,101.0,13.4,1505.2,327.4,-0.8,1.8,2470.608,13.28,0.05,295.6
2021-10-29T01:49:03,42.805,6.029,-0.055,0.01,-0.024,100.0,100.0,101.0,13.4,1505.2,324.8,-0.8,1.8,2470.655,13.28,0.055,280.3
2021-10-29T01:52:03,42.805,6.029,-0.037,0.022,-0.002,101.0,101.0,101.0,13.3,1505.2,327.3,-0.8,1.8,2470.635,13.28,0.043,300.7
2021-10-29T01:55:03,42.805,6.029,-0.046,0.03,0.013,101.0,101.0,101.0,13.3,1505.2,325.7,-0.8,1.8,2470.641,13.28,0.054,303.1
2021-10-29T01:58:03,42.805,6.029,-0.044,0.001,-0.001,102.0,101.0,100.0,13.3,1505.2,328.5,-0.8,1.8,2470.619,13.28,0.044,271.3
2021-10-29T02:04:03,42.805,6.029,-0.052,0.031,0.014,101.0,101.0,100.0,13.4,1505.2,330.4,-0.8,1.8,2470.636,13.28,0.06,300.8
2021-10-29T02:07:03,42.805,6.029,-0.039,0.01,-0.01,101.0,102.0,99.0,13.4,1505.2,331.1,-0.8,1.8,2470.671,13.28,0.04,284.4
2021-10-29T02:10:03,42.805,6.029,-0.045,0.03,-0.009,101.0,99.0,103.0,13.3,1505.2,327.6,-0.7,1.9,2470.666,13.28,0.054,303.7
2021-10-29T02:13:03,42.805,6.029,-0.03,0.028,-0.032,99.0,101.0,101.0,13.4,1505.2,327.3,-0.8,1.8,2470.579,13.28,0.041,313.0
2021-10-29T02:16:03,42.805,6.029,-0.047,0.014,-0.033,101.0,101.0,100.0,13.3,1505.2,331.3,-0.7,1.8,2470.57,13.28,0.049,286.6
2021-10-29T02:19:03,42.805,6.029,-0.035,0.005,-0.017,100.0,100.0,100.0,13.4,1505.2,326.4,-0.8,1.8,2470.537,13.28,0.035,278.1
2021-10-29T02:22:03,42.805,6.029,-0.047,0.029,0.003,100.0,100.0,101.0,13.3,1505.2,326.9,-0.8,1.8,2470.515,13.28,0.055,301.7
2021-10-29T02:25:03,42.805,6.029,-0.041,0.025,-0.002,100.0,100.0,100.0,13.4,1505.2,326.3,-0.8,1.8,2470.47,13.28,0.048,301.4
2021-10-29T02:28:03,42.805,6.029,-0.02,0.014,0.006,101.0,99.0,100.0,13.4,1505.2,328.5,-0.7,1.8,2470.426,13.28,0.024,305.0
2021-10-29T02:31:03,42.805,6.029,-0.022,0.017,-0.014,101.0,100.0,100.0,13.4,1505.2,327.5,-0.7,1.8,2470.435,13.28,0.027,307.7
2021-10-29T02:34:03,42.805,6.029,-0.021,0.023,0.002,98.0,100.0,102.0,13.3,1505.2,329.8,-0.8,1.8,2470.386,13.28,0.031,317.6
2021-10-29T02:37:03,42.805,6.029,-0.048,0.021,-0.024,100.0,101.0,101.0,13.3,1505.2,325.7,-0.7,1.8,2470.415,13.28,0.052,293.6
2021-10-29T02:40:03,42.805,6.029,-0.064,-0.013,-0.072,101.0,100.0,100.0,13.3,1505.2,327.1,-0.7,1.9,2470.393,13.28,0.065,258.5
2021-10-29T02:43:03,42.805,6.029,-0.026,0.012,0.015,101.0,99.0,102.0,13.4,1505.2,325.2,-0.7,1.8,2470.406,13.28,0.028,294.8
2021-10-29T02:46:03,42.805,6.029,-0.017,0.008,0.003,101.0,100.0,100.0,13.4,1505.2,329.3,-0.7,1.8,2470.392,13.28,0.018,295.2
2021-10-29T02:49:03,42.805,6.029,-0.045,0.02,-0.003,100.0,102.0,100.0,13.4,1505.2,327.8,-0.8,1.8,2470.399,13.28,0.049,294.0
2021-10-29T02:52:03,42.805,6.029,-0.025,0.009,0.001,102.0,101.0,100.0,13.4,1505.2,325.3,-0.8,1.8,2470.365,13.28,0.026,289.8
2021-10-29T02:55:03,42.805,6.029,-0.021,0.017,0.017,102.0,103.0,100.0,13.3,1505.2,331.2,-0.7,1.8,2470.401,13.28,0.027,309.0
2021-10-29T02:58:03,42.805,6.029,-0.03,0.0,-0.006,102.0,101.0,101.0,13.3,1505.2,327.2,-0.7,1.8,2470.38,13.28,0.03,270.0
2021-10-29T03:04:03,42.805,6.029,-0.024,-0.013,-0.045,101.0,100.0,102.0,13.4,1505.2,327.6,-0.7,1.8,2470.348,13.28,0.027,241.6
2021-10-29T03:07:03,42.805,6.029,-0.046,0.008,-0.006,102.0,100.0,100.0,13.3,1505.2,331.6,-0.8,1.8,2470.445,13.28,0.046,279.9
2021-10-29T03:10:03,42.805,6.029,-0.038,0.021,-0.007,103.0,101.0,99.0,13.3,1505.2,328.5,-0.7,1.8,2470.441,13.28,0.043,298.9
2021-10-29T03:13:03,42.805,6.029,-0.001,0.009,0.003,101.0,101.0,101.0,13.4,1505.2,326.1,-0.8,1.8,2470.499,13.28,0.009,353.7
2021-10-29T03:16:03,42.805,6.029,-0.059,0.004,-0.014,101.0,101.0,101.0,13.4,1505.2,325.5,-0.8,1.8,2470.519,13.28,0.059,273.9
2021-10-29T03:19:03,42.805,6.029,-0.023,0.018,-0.013,101.0,100.0,101.0,13.4,1505.2,329.7,-0.8,1.9,2470.545,13.28,0.029,308.0
2021-10-29T03:22:03,42.805,6.029,-0.018,0.015,0.014,100.0,102.0,102.0,13.4,1505.2,328.6,-0.8,1.8,2470.576,13.28,0.023,309.8
2021-10-29T03:25:03,42.805,6.029,-0.05,0.017,0.005,101.0,101.0,100.0,13.4,1505.2,327.6,-0.8,1.8,2470.635,13.28,0.052,288.8
2021-10-29T03:28:03,42.805,6.029,-0.034,0.018,-0.028,102.0,100.0,101.0,13.4,1505.2,329.6,-0.7,1.8,2470.57,13.28,0.038,297.9
2021-10-29T03:31:03,42.805,6.029,-0.009,0.005,0.004,100.0,101.0,100.0,13.4,1505.2,327.5,-0.8,1.8,2470.586,13.28,0.01,299.1
2021-10-29T03:34:03,42.805,6.029,-0.056,0.024,-0.002,101.0,101.0,101.0,13.4,1505.2,328.8,-0.8,1.8,2470.629,13.28,0.06,293.2
2021-10-29T03:37:03,42.805,6.029,-0.013,-0.018,-0.027,100.0,100.0,101.0,13.4,1505.2,330.8,-0.7,1.8,2470.636,13.28,0.022,215.8
2021-10-29T03:40:03,42.805,6.029,-0.03,0.001,-0.015,102.0,102.0,100.0,13.4,1505.2,330.5,-0.7,1.8,2470.7,13.28,0.03,271.9
2021-10-29T03:43:03,42.805,6.029,-0.038,0.003,-0.031,100.0,100.0,101.0,13.4,1505.2,329.8,-0.8,1.8,2470.622,13.28,0.038,274.5
2021-10-29T03:46:03,42.805,6.029,-0.026,0.015,0.016,99.0,101.0,101.0,13.4,1505.2,326.5,-0.8,1.8,2470.645,13.28,0.03,300.0
2021-10-29T03:49:03,42.805,6.029,-0.033,0.009,-0.008,101.0,100.0,101.0,13.3,1505.2,327.6,-0.8,1.8,2470.635,13.28,0.034,285.3
2021-10-29T03:52:03,42.805,6.029,-0.061,0.011,-0.027,102.0,98.0,102.0,13.3,1505.2,331.5,-0.7,1.8,2470.652,13.28,0.061,280.2
2021-10-29T03:55:03,42.805,6.029,-0.02,-0.007,0.002,101.0,101.0,101.0,13.4,1505.2,328.7,-0.7,1.8,2470.694,13.28,0.021,250.7
2021-10-29T03:58:03,42.805,6.029,-0.041,0.002,-0.015,101.0,101.0,101.0,13.4,1505.2,327.6,-0.8,1.9,2470.662,13.28,0.041,272.8
2021-10-29T04:04:03,42.805,6.029,-0.031,0.004,0.002,101.0,101.0,100.0,13.4,1505.2,327.9,-0.8,1.8,2470.7,13.28,0.031,277.3
2021-10-29T04:07:03,42.805,6.029,-0.018,-0.005,-0.015,101.0,101.0,101.0,13.4,1505.2,327.7,-0.8,1.8,2470.666,13.28,0.018,254.5
2021-10-29T04:10:03,42.805,6.029,-0.031,0.009,0.004,101.0,102.0,100.0,13.4,1505.2,329.7,-0.7,1.8,2470.697,13.28,0.032,286.2
2021-10-29T04:13:03,42.805,6.029,-0.006,-0.013,-0.022,101.0,100.0,101.0,13.4,1505.2,327.3,-0.8,1.8,2470.66,13.28,0.014,204.8
2021-10-29T04:16:03,42.805,6.029,-0.049,0.003,-0.026,101.0,100.0,100.0,13.4,1505.2,329.8,-0.7,1.8,2470.662,13.28,0.049,273.5
2021-10-29T04:19:03,42.805,6.029,-0.031,0.002,-0.007,101.0,101.0,101.0,13.4,1505.2,330.7,-0.7,1.8,2470.651,13.28,0.031,273.7
2021-10-29T04:22:03,42.805,6.029,-0.049,0.0,-0.034,100.0,101.0,101.0,13.4,1505.2,330.1,-0.8,1.8,2470.664,13.28,0.049,270.0
2021-10-29T04:25:03,42.805,6.029,-0.039,0.008,-0.025,101.0,101.0,101.0,13.3,1505.2,331.1,-0.7,1.8,2470.645,13.28,0.039,281.6
2021-10-29T04:28:03,42.805,6.029,-0.045,0.008,-0.026,100.0,101.0,101.0,13.4,1505.2,331.8,-0.7,1.8,2470.651,13.28,0.045,280.1
2021-10-29T04:31:03,42.805,6.029,-0.028,0.007,-0.012,101.0,101.0,100.0,13.4,1505.2,328.6,-0.7,1.8,2470.634,13.28,0.028,284.0
2021-10-29T04:34:03,42.805,6.029,-0.051,0.02,-0.004,99.0,101.0,101.0,13.4,1505.2,328.3,-0.8,1.8,2470.621,13.28,0.054,291.4
2021-10-29T04:37:03,42.805,6.029,-0.041,0.003,-0.023,101.0,100.0,101.0,13.3,1505.2,331.7,-0.8,1.8,2470.593,13.28,0.041,274.2
2021-10-29T04:40:03,42.805,6.029,-0.004,-0.016,-0.041,101.0,100.0,101.0,13.3,1505.2,330.2,-0.8,1.8,2470.606,13.28,0.016,194.0
2021-10-29T04:43:03,42.805,6.029,-0.024,0.013,-0.033,101.0,101.0,101.0,13.3,1505.2,327.5,-0.8,1.8,2470.631,13.28,0.027,298.4
2021-10-29T04:46:03,42.805,6.029,-0.035,0.005,-0.005,102.0,100.0,101.0,13.3,1505.2,329.5,-0.7,1.8,2470.624,13.28,0.035,278.1
2021-10-29T04:49:03,42.805,6.029,-0.033,0.007,-0.023,101.0,101.0,100.0,13.3,1505.2,329.0,-0.8,1.9,2470.642,13.28,0.033,282.0
2021-10-29T04:52:03,42.805,6.029,-0.016,-0.003,0.011,102.0,101.0,101.0,13.4,1505.2,330.4,-0.7,1.9,2470.625,13.28,0.016,259.4
2021-10-29T04:55:03,42.805,6.029,-0.021,0.018,-0.005,101.0,103.0,101.0,13.4,1505.2,326.3,-0.8,1.8,2470.623,13.28,0.027,310.6
2021-10-29T04:58:03,42.805,6.029,-0.043,0.016,0.011,100.0,101.0,100.0,13.3,1505.2,331.6,-0.8,1.8,2470.654,13.28,0.045,290.4
2021-10-29T05:04:03,42.805,6.029,-0.036,0.007,0.001,101.0,100.0,101.0,13.3,1505.2,327.0,-0.7,1.8,2470.669,13.28,0.036,281.0
2021-10-29T05:07:03,42.805,6.029,-0.014,-0.011,-0.01,101.0,101.0,101.0,13.4,1505.2,325.7,-0.7,1.8,2470.632,13.28,0.017,231.8
2021-10-29T05:10:03,42.805,6.029,-0.035,-0.006,-0.033,101.0,102.0,99.0,13.4,1505.2,327.2,-0.7,1.8,2470.699,13.28,0.035,260.3
2021-10-29T05:13:03,42.805,6.029,-0.018,0.0,-0.035,101.0,100.0,100.0,13.4,1505.2,328.9,-0.7,1.8,2470.605,13.28,0.018,270.0
2021-10-29T05:16:03,42.805,6.029,-0.031,0.003,-0.036,101.0,102.0,101.0,13.4,1505.2,326.8,-0.7,1.8,2470.678,13.28,0.031,275.5
2021-10-29T05:19:03,42.805,6.029,-0.033,0.01,-0.041,101.0,102.0,101.0,13.4,1505.2,326.7,-0.7,1.8,2470.657,13.28,0.034,286.9
2021-10-29T05:22:03,42.805,6.029,-0.032,-0.003,-0.035,101.0,103.0,100.0,13.4,1505.2,328.3,-0.7,1.8,2470.612,13.28,0.032,264.6
2021-10-29T05:25:03,42.805,6.029,-0.031,-0.002,-0.015,102.0,102.0,101.0,13.4,1505.2,327.6,-0.8,1.8,2470.608,13.28,0.031,266.3
2021-10-29T05:28:03,42.805,6.029,-0.031,0.027,0.008,101.0,100.0,101.0,13.3,1505.2,329.7,-0.8,1.8,2470.605,13.28,0.041,311.1
2021-10-29T05:31:03,42.805,6.029,-0.043,0.025,0.006,102.0,101.0,101.0,13.4,1505.2,327.3,-0.8,1.8,2470.609,13.28,0.049,300.2
2021-10-29T05:34:03,42.805,6.029,-0.019,0.007,0.009,101.0,100.0,101.0,13.3,1505.2,331.7,-0.8,1.8,2470.613,13.28,0.02,290.2
2021-10-29T05:37:03,42.805,6.029,-0.025,-0.004,0.003,101.0,101.0,101.0,13.3,1505.2,328.7,-0.7,1.8,2470.636,13.28,0.025,260.9
2021-10-29T05:40:03,42.805,6.029,-0.026,0.006,-0.006,102.0,100.0,102.0,13.4,1505.2,331.2,-0.7,1.8,2470.621,13.28,0.026,283.0
2021-10-29T05:43:03,42.805,6.029,-0.045,-0.005,-0.012,101.0,101.0,101.0,13.4,1505.2,326.0,-0.8,1.8,2470.642,13.28,0.045,263.7
2021-10-29T05:46:03,42.805,6.029,-0.028,0.007,-0.019,102.0,102.0,100.0,13.4,1505.2,331.3,-0.8,1.8,2470.62,13.28,0.028,284.0
2021-10-29T05:49:03,42.805,6.029,-0.023,-0.014,0.0,101.0,102.0,100.0,13.3,1505.2,327.7,-0.8,1.8,2470.628,13.28,0.026,238.7
2021-10-29T05:52:03,42.805,6.029,-0.042,0.007,-0.021,102.0,101.0,101.0,13.4,1505.2,327.0,-0.8,1.8,2470.606,13.28,0.042,279.5
2021-10-29T05:55:03,42.805,6.029,-0.042,0.006,-0.009,102.0,102.0,102.0,13.4,1505.2,328.6,-0.7,1.8,2470.618,13.28,0.042,278.1
2021-10-29T05:58:03,42.805,6.029,-0.042,0.001,0.021,100.0,102.0,102.0,13.3,1505.2,327.0,-0.7,1.8,2470.666,13.28,0.042,271.4
2021-10-29T06:04:03,42.805,6.029,-0.039,0.012,0.017,102.0,101.0,101.0,13.4,1505.2,327.6,-0.7,1.8,2470.663,13.28,0.04,287.1
2021-10-29T06:07:03,42.805,6.029,-0.014,0.008,-0.012,101.0,101.0,101.0,13.3,1505.2,328.1,-0.8,1.8,2470.642,13.28,0.016,299.7
2021-10-29T06:10:03,42.805,6.029,-0.036,0.007,-0.012,102.0,102.0,101.0,13.3,1505.2,325.2,-0.7,1.8,2470.626,13.28,0.036,281.0
2021-10-29T06:13:03,42.805,6.029,-0.032,-0.013,-0.036,101.0,100.0,102.0,13.4,1505.2,326.5,-0.8,1.8,2470.611,13.28,0.034,247.9
2021-10-29T06:16:03,42.805,6.029,-0.043,0.014,-0.018,103.0,101.0,100.0,13.4,1505.2,325.9,-0.8,1.8,2470.65,13.28,0.045,288.0
2021-10-29T06:19:03,42.805,6.029,-0.018,-0.004,0.002,102.0,101.0,101.0,13.3,1505.2,327.3,-0.8,1.9,2470.611,13.28,0.018,257.5
2021-10-29T06:22:03,42.805,6.029,-0.026,0.02,-0.007,103.0,101.0,99.0,13.4,1505.2,328.9,-0.8,1.8,2470.634,13.28,0.032,307.6
2021-10-29T06:25:03,42.805,6.029,-0.043,0.002,-0.016,102.0,99.0,101.0,13.3,1505.2,327.3,-0.8,1.8,2470.607,13.28,0.043,272.7
2021-10-29T06:28:03,42.805,6.029,-0.019,0.013,-0.001,101.0,102.0,101.0,13.3,1505.2,327.1,-0.8,1.8,2470.642,13.28,0.023,304.4
2021-10-29T06:31:03,42.805,6.029,-0.049,0.015,0.01,102.0,102.0,101.0,13.3,1505.2,326.1,-0.8,1.8,2470.61,13.28,0.051,287.0
2021-10-29T06:34:03,42.805,6.029,-0.008,-0.004,-0.028,102.0,102.0,101.0,13.3,1505.2,329.9,-0.8,1.8,2470.637,13.28,0.008,243.4
2021-10-29T06:37:03,42.805,6.029,-0.021,0.009,0.005,102.0,101.0,101.0,13.4,1505.2,326.8,-0.8,1.8,2470.59,13.28,0.022,293.2
2021-10-29T06:40:03,42.805,6.029,-0.037,0.009,-0.003,100.0,101.0,101.0,13.4,1505.2,327.4,-0.8,1.8,2470.615,13.28,0.038,283.7
2021-10-29T06:43:03,42.805,6.029,-0.045,0.015,-0.035,102.0,101.0,101.0,13.4,1505.2,328.2,-0.7,1.8,2470.629,13.28,0.047,288.4
2021-10-29T06:46:03,42.805,6.029,-0.02,0.015,-0.015,101.0,101.0,101.0,13.4,1505.2,328.0,-0.7,1.8,2470.613,13.28,0.025,306.9
2021-10-29T06:49:03,42.805,6.029,-0.03,0.009,-0.028,102.0,101.0,101.0,13.4,1505.2,327.8,-0.7,1.8,2470.601,13.28,0.031,286.7
2021-10-29T06:52:03,42.805,6.029,-0.017,0.001,0.027,104.0,102.0,101.0,13.4,1505.2,325.4,-0.8,1.8,2470.597,13.28,0.017,273.4
2021-10-29T06:55:03,42.805,6.029,-0.035,-0.001,-0.029,102.0,100.0,102.0,13.4,1505.2,327.1,-0.7,1.8,2470.575,13.28,0.035,268.4
2021-10-29T06:58:03,42.805,6.029,-0.022,-0.005,-0.034,102.0,101.0,101.0,13.4,1505.2,331.4,-0.8,1.8,2470.619,13.28,0.022,257.2
2021-10-29T07:04:03,42.805,6.029,-0.034,0.001,-0.036,102.0,102.0,102.0,13.4,1505.2,329.2,-0.7,1.8,2470.689,13.28,0.034,271.7
2021-10-29T07:07:03,42.805,6.029,-0.046,0.001,-0.015,101.0,102.0,101.0,13.3,1505.2,328.9,-0.7,1.8,2470.678,13.28,0.046,271.2
2021-10-29T07:10:03,42.805,6.029,-0.029,-0.007,-0.026,103.0,100.0,101.0,13.3,1505.2,325.6,-0.8,1.8,2470.628,13.28,0.029,256.4
2021-10-29T07:13:03,42.805,6.029,-0.061,0.004,-0.044,101.0,103.0,101.0,13.4,1505.2,327.5,-0.8,1.8,2470.647,13.28,0.061,273.7
2021-10-29T07:16:03,42.805,6.029,-0.009,0.008,-0.009,102.0,103.0,100.0,13.3,1505.2,330.2,-0.8,1.8,2470.688,13.28,0.012,311.6
2021-10-29T07:19:03,42.805,6.029,-0.044,0.003,-0.011,102.0,103.0,102.0,13.4,1505.2,326.8,-0.7,1.8,2470.656,13.28,0.044,273.9
2021-10-29T07:22:03,42.805,6.029,-0.032,0.01,-0.035,102.0,101.0,101.0,13.4,1505.2,325.3,-0.7,1.8,2470.619,13.28,0.033,287.4
2021-10-29T07:25:03,42.805,6.029,-0.01,0.0,-0.019,102.0,101.0,101.0,13.4,1505.2,331.1,-0.7,1.8,2470.629,13.28,0.01,270.0
2021-10-29T07:28:03,42.805,6.029,-0.025,-0.009,-0.018,104.0,101.0,101.0,13.4,1505.2,329.3,-0.7,1.8,2470.619,13.28,0.026,250.2
2021-10-29T07:31:03,42.805,6.029,-0.029,-0.019,-0.056,102.0,102.0,101.0,13.4,1505.2,325.3,-0.7,1.8,2470.63,13.28,0.034,236.8
2021-10-29T07:34:03,42.805,6.029,-0.011,-0.001,-0.006,103.0,102.0,102.0,13.4,1505.2,331.6,-0.8,1.8,2470.582,13.28,0.011,264.8
2021-10-29T07:37:03,42.805,6.029,-0.026,-0.012,-0.012,102.0,103.0,102.0,13.4,1505.2,328.5,-0.7,1.8,2470.596,13.28,0.028,245.2
2021-10-29T07:40:03,42.805,6.029,-0.035,-0.013,-0.009,102.0,101.0,101.0,13.4,1505.2,331.0,-0.8,1.8,2470.599,13.28,0.037,249.6
2021-10-29T07:43:03,42.805,6.029,-0.028,0.001,-0.019,102.0,102.0,100.0,13.4,1505.2,330.1,-0.8,1.9,2470.632,13.28,0.028,272.0
2021-10-29T07:46:03,42.805,6.029,-0.017,-0.009,-0.033,104.0,101.0,102.0,13.4,1505.2,331.7,-0.7,1.8,2470.625,13.28,0.019,242.1
2021-10-29T07:49:03,42.805,6.029,-0.05,0.0,-0.03,103.0,102.0,102.0,13.4,1505.2,326.1,-0.8,1.8,2470.622,13.28,0.05,270.0
2021-10-29T07:52:03,42.805,6.029,-0.023,-0.014,-0.043,102.0,101.0,101.0,13.4,1505.2,327.6,-0.8,1.8,2470.588,13.28,0.026,238.7
2021-10-29T07:55:03,42.805,6.029,-0.044,0.007,-0.021,101.0,101.0,102.0,13.4,1505.2,328.3,-0.8,1.9,2470.646,13.28,0.044,279.0
2021-10-29T07:58:03,42.805,6.029,-0.033,0.005,-0.001,102.0,101.0,101.0,13.4,1505.2,327.3,-0.7,1.8,2470.631,13.28,0.033,278.6
2021-10-29T08:04:03,42.805,6.029,-0.034,0.022,0.002,102.0,103.0,101.0,13.4,1505.2,331.6,-0.7,1.8,2470.682,13.28,0.04,302.9
2021-10-29T08:07:03,42.805,6.029,-0.042,-0.008,-0.04,102.0,102.0,102.0,13.4,1505.2,330.4,-0.7,1.8,2470.635,13.28,0.042,259.2
2021-10-29T08:10:03,42.805,6.029,-0.031,0.002,-0.029,104.0,100.0,101.0,13.4,1505.2,331.4,-0.8,1.8,2470.644,13.28,0.031,273.7
2021-10-29T08:13:03,42.805,6.029,-0.005,0.0,0.013,101.0,101.0,101.0,13.3,1505.2,329.1,-0.8,1.8,2470.669,13.28,0.005,270.0
2021-10-29T08:16:03,42.805,6.029,-0.027,-0.006,-0.021,101.0,103.0,101.0,13.4,1505.2,331.1,-0.8,1.8,2470.7,13.28,0.027,257.5
2021-10-29T08:19:03,42.805,6.029,-0.048,-0.004,-0.022,102.0,102.0,101.0,13.4,1505.2,328.2,-0.7,1.8,2470.635,13.28,0.048,265.2
2021-10-29T08:22:03,42.805,6.029,-0.047,0.002,-0.023,101.0,102.0,102.0,13.4,1505.2,327.2,-0.7,1.8,2470.645,13.28,0.047,272.4
2021-10-29T08:25:03,42.805,6.029,-0.043,0.008,0.003,102.0,101.0,101.0,13.4,1505.2,330.6,-0.8,1.8,2470.615,13.28,0.043,280.5
2021-10-29T08:28:03,42.805,6.029,-0.035,-0.013,-0.035,102.0,101.0,103.0,13.4,1505.2,326.1,-0.7,1.8,2470.622,13.28,0.037,249.6
2021-10-29T08:31:03,42.805,6.029,-0.019,-0.016,-0.021,102.0,102.0,101.0,13.4,1505.2,326.9,-0.7,1.8,2470.649,13.28,0.024,229.9
2021-10-29T08:34:03,42.805,6.029,-0.043,-0.007,-0.026,103.0,101.0,101.0,13.4,1505.2,329.4,-0.7,1.8,2470.663,13.28,0.043,260.8
2021-10-29T08:37:03,42.805,6.029,-0.032,0.004,-0.011,102.0,101.0,102.0,13.4,1505.2,331.4,-0.8,1.8,2470.64,13.28,0.032,277.1
2021-10-29T08:40:03,42.805,6.029,-0.036,-0.018,-0.068,102.0,101.0,101.0,13.4,1505.2,325.9,-0.8,1.8,2470.617,13.28,0.04,243.4
2021-10-29T08:43:03,42.805,6.029,-0.014,0.01,0.013,102.0,101.0,101.0,13.3,1505.2,331.2,-0.7,1.8,2470.661,13.28,0.017,305.5
2021-10-29T08:46:03,42.805,6.029,-0.042,0.009,-0.004,102.0,102.0,102.0,13.4,1505.2,331.4,-0.8,1.8,2470.633,13.28,0.042,282.1
2021-10-29T08:49:03,42.805,6.029,-0.037,-0.01,-0.029,103.0,101.0,102.0,13.4,1505.2,329.5,-0.7,1.8,2470.632,13.28,0.038,254.9
2021-10-29T08:52:03,42.805,6.029,-0.025,0.007,-0.016,103.0,102.0,101.0,13.4,1505.2,328.5,-0.7,1.8,2470.68,13.28,0.025,285.6
2021-10-29T08:55:03,42.805,6.029,-0.022,0.0,-0.026,102.0,102.0,103.0,13.4,1505.2,329.5,-0.7,1.8,2470.669,13.28,0.022,270.0
2021-10-29T08:58:03,42.805,6.029,-0.034,0.001,-0.011,102.0,102.0,102.0,13.4,1505.2,327.3,-0.8,1.9,2470.666,13.28,0.034,271.7
2021-10-29T09:04:03,42.805,6.029,-0.018,-0.015,-0.02,103.0,102.0,102.0,13.4,1505.2,326.7,-0.8,1.8,2470.684,13.28,0.023,230.2
2021-10-29T09:07:03,42.805,6.029,-0.055,0.003,-0.045,102.0,102.0,101.0,13.4,1505.2,330.9,-0.8,1.8,2470.675,13.28,0.055,273.1
2021-10-29T09:10:03,42.805,6.029,-0.025,-0.015,0.005,103.0,104.0,100.0,13.3,1505.2,327.4,-0.8,1.8,2470.676,13.28,0.029,239.0
2021-10-29T09:13:03,42.805,6.029,-0.04,-0.015,-0.03,102.0,102.0,102.0,13.4,1505.2,329.2,-0.8,1.8,2470.673,13.28,0.042,249.4
2021-10-29T09:16:03,42.805,6.029,-0.021,0.001,-0.026,103.0,102.0,101.0,13.3,1505.2,326.6,-0.8,1.8,2470.622,13.28,0.021,272.7
2021-10-29T09:19:03,42.805,6.029,-0.041,-0.012,-0.022,102.0,103.0,100.0,13.4,1505.2,326.5,-0.8,1.8,2470.68,13.28,0.042,253.7
2021-10-29T09:22:03,42.805,6.029,-0.016,-0.018,-0.047,102.0,103.0,102.0,13.4,1505.2,329.3,-0.7,1.8,2470.701,13.28,0.024,221.6
2021-10-29T09:25:03,42.805,6.029,-0.007,-0.009,-0.004,102.0,101.0,102.0,13.4,1505.2,328.0,-0.7,1.8,2470.655,13.28,0.011,217.9
2021-10-29T09:28:03,42.805,6.029,-0.024,-0.006,-0.017,103.0,100.0,102.0,13.4,1505.2,325.1,-0.7,1.8,2470.635,13.28,0.024,256.0
2021-10-29T09:31:03,42.805,6.029,-0.036,-0.012,-0.01,101.0,103.0,101.0,13.3,1505.2,326.6,-0.7,1.9,2470.693,13.28,0.037,251.6
2021-10-29T09:34:03,42.805,6.029,-0.024,0.0,-0.032,102.0,102.0,100.0,13.3,1505.2,330.1,-0.7,1.8,2470.669,13.28,0.024,270.0
2021-10-29T09:37:03,42.805,6.029,-0.021,0.0,-0.028,102.0,101.0,101.0,13.4,1505.2,326.8,-0.8,1.8,2470.649,13.28,0.021,270.0
2021-10-29T09:40:03,42.805,6.029,-0.04,-0.003,-0.038,100.0,102.0,102.0,13.4,1505.2,329.6,-0.7,1.8,2470.647,13.28,0.04,265.7
2021-10-29T09:43:03,42.805,6.029,-0.039,0.01,-0.022,103.0,100.0,102.0,13.4,1505.2,326.3,-0.7,1.8,2470.661,13.28,0.04,284.4
2021-10-29T09:46:03,42.805,6.029,-0.017,0.002,0.002,103.0,102.0,102.0,13.4,1505.2,326.4,-0.8,1.8,2470.648,13.28,0.017,276.7
2021-10-29T09:49:03,42.805,6.029,-0.019,0.0,-0.001,101.0,102.0,102.0,13.4,1505.2,328.3,-0.8,1.8,2470.701,13.28,0.019,270.0
2021-10-29T09:52:03,42.805,6.029,-0.018,-0.005,-0.027,103.0,101.0,100.0,13.4,1505.2,328.5,-0.7,1.8,2470.663,13.28,0.018,254.5
2021-10-29T09:55:03,42.805,6.029,-0.034,-0.009,-0.007,102.0,102.0,102.0,13.3,1505.2,327.9,-0.7,1.8,2470.698,13.28,0.035,255.2